Palm Springs, CA

1:34 AM PDT on September 27, 2016 (GMT -0700)
Palm Springs International

Weather History for KPSP - January, 2015

Change the Weather History Date:

Thursday, January 29, 2015

  Actual Average Record
Temperature  
Mean Temperature 69 °F 58 °F  
Max Temperature 76 °F 70 °F 89 °F (1971)
Min Temperature 61 °F 47 °F 26 °F (1948)
Degree Days  
Heating Degree Days 0 7  
Month to date heating degree days 112 227  
Since 1 July heating degree days 360 613  
Cooling Degree Days 4 0  
Month to date cooling degree days 18 0  
Year to date cooling degree days 18 0  
Growing Degree Days 18 (Base 50)    
Moisture  
Dew Point 42 °F    
Average Humidity 43    
Maximum Humidity 60    
Minimum Humidity 25    
Precipitation  
Precipitation T in 0.02 in 2.02 in (1980)
Month to date precipitation 0.12 0.97  
Year to date precipitation 0.12 0.97  
Snow  
Snow 0.00 in - - ()
Month to date snowfall 0.0  
Year to date snowfall 0.0  
Snow Depth 0.00 in    
Sea Level Pressure  
Sea Level Pressure 30.05 in    
Wind  
Wind Speed 5 mph (WNW)    
Max Wind Speed 10 mph    
Max Gust Speed 12 mph    
Visibility 10 miles    
Events Rain    
T = Trace of Precipitation, MM = Missing Value Source: NWS Daily Summary

Daily Weather History Graph

Daily Weather History Graph

Search for Another Location

Airport or City:

Trip Planner

Search our weather history database for the weather conditions in past years. The results will help you decide how hot, cold, wet, or windy it might be!

Date:

Astronomy

Jan. 29, 2015 Rise Set
Actual Time 6:44 AM PST 5:13 PM PST
Civil Twilight 6:18 AM PST 5:40 PM PST
Nautical Twilight 5:48 AM PST 6:10 PM PST
Astronomical Twilight 5:18 AM PST 6:39 PM PST
Moon 1:06 PM PST (1/29) 2:21 AM PST (1/29)
Length of Visible Light 11h 21m
Length of Day
10h 29m
Waxing Gibbous, 76% of the Moon is Illuminated
Jan 29
Waxing Gibbous
Feb 3
Full
Feb 11
Last Quarter
Feb 18
New
Feb 25
First Quarter

Hourly Weather History & Observations

Time (PST) Temp. Dew Point Humidity Pressure Visibility Wind Dir Wind Speed Gust Speed Precip Events Conditions
12:53 AM 64.0 °F 45.0 °F 50% 30.12 in 10.0 mi NW 3.5 mph - N/A   Clear
1:53 AM 63.0 °F 45.0 °F 52% 30.10 in 10.0 mi NW 8.1 mph - N/A   Clear
2:53 AM 61.0 °F 46.0 °F 58% 30.10 in 10.0 mi West 4.6 mph - N/A   Clear
3:53 AM 64.9 °F 41.0 °F 42% 30.08 in 10.0 mi West 5.8 mph - N/A   Clear
4:53 AM 62.1 °F 45.0 °F 53% 30.07 in 10.0 mi NNW 5.8 mph - N/A   Clear
5:53 AM 64.0 °F 39.9 °F 41% 30.08 in 10.0 mi WSW 6.9 mph - N/A   Clear
6:53 AM 64.0 °F 39.0 °F 40% 30.10 in 10.0 mi WSW 4.6 mph - N/A   Overcast
7:53 AM 64.9 °F 39.9 °F 40% 30.11 in 10.0 mi West 5.8 mph - N/A   Clear
8:53 AM 66.9 °F 41.0 °F 39% 30.11 in 10.0 mi WSW 4.6 mph - N/A   Clear
9:53 AM 72.0 °F 41.0 °F 33% 30.10 in 10.0 mi WNW 3.5 mph - N/A   Clear
10:53 AM 73.0 °F 39.0 °F 29% 30.09 in 10.0 mi SW 3.5 mph - N/A   Overcast
11:53 AM 73.9 °F 39.0 °F 28% 30.06 in 10.0 mi Variable 4.6 mph - N/A   Overcast
12:53 PM 75.0 °F 39.9 °F 28% 30.02 in 10.0 mi WNW 6.9 mph - N/A   Overcast
1:53 PM 75.0 °F 37.9 °F 26% 30.00 in 10.0 mi NW 6.9 mph - N/A   Overcast
2:53 PM 75.0 °F 37.9 °F 26% 30.00 in 10.0 mi NW 4.6 mph - N/A   Overcast
3:53 PM 73.9 °F 39.9 °F 29% 29.99 in 10.0 mi West 3.5 mph - N/A   Overcast
4:53 PM 73.9 °F 39.9 °F 29% 29.99 in 10.0 mi NW 5.8 mph - N/A   Overcast
5:53 PM 69.1 °F 48.0 °F 47% 30.00 in 10.0 mi Calm Calm - N/A   Overcast
6:53 PM 68.0 °F 48.0 °F 49% 30.02 in 10.0 mi Calm Calm - N/A   Overcast
7:53 PM 68.0 °F 46.0 °F 45% 30.03 in 10.0 mi West 3.5 mph - N/A   Overcast
8:53 PM 69.1 °F 44.1 °F 40% 30.04 in 10.0 mi Variable 4.6 mph - N/A Rain Light Rain
9:53 PM 68.0 °F 42.1 °F 39% 30.02 in 10.0 mi West 5.8 mph - N/A   Overcast
10:53 PM 69.1 °F 39.9 °F 35% 30.00 in 10.0 mi NNW 6.9 mph - N/A   Overcast
11:53 PM 64.9 °F 44.1 °F 47% 29.99 in 10.0 mi Calm Calm - N/A   Overcast